Regional Weather Roundup
Issued by NWS

Home | Current Version | Previous Version | Graphics & Text | Print | Product List | Glossary On
Versions: 1 2 3 4 5 6 7 8 9 10 11 12 13 14 15 16 17 18 19 20 21 22 23 24 25 26 27 28 29 30 31 32 33 34 35 36 37 38 39 40 41 42 43 44 45 46 47 48 49 50
581
ASUS43 KLOT 281109
RWRIL

ILLINOIS REGIONAL WEATHER ROUNDUP
NATIONAL WEATHER SERVICE CHICAGO/ROMEOVILLE IL
600 AM CDT WED JUN 28 2017

NOTE: "FAIR" INDICATES FEW OR NO CLOUDS BELOW 12,000 FEET WITH NO
SIGNIFICANT WEATHER AND/OR OBSTRUCTIONS TO VISIBILITY.

* THESE STATIONS ARE NOT UNDER NWS QUALITY CONTROL. THEY ALSO MAY NOT
  REPORT WEATHER SUCH AS PRECIPITATION OR FOG.

ILZ001-002-007-009-015-016-024-281200-
NORTHWEST ILLINOIS

CITY           SKY/WX    TMP DP  RH WIND       PRES   REMARKS
MOLINE         CLOUDY    67  56  67 S10       29.88F
SAVANNA*       CLOUDY    63  54  72 S10       29.89S
$$

ILZ003-004-008-010-011-017-018-281200-
NORTH CENTRAL ILLINOIS

CITY           SKY/WX    TMP DP  RH WIND       PRES   REMARKS
ROCKFORD       CLOUDY    63  49  60 S12       29.94F
FREEPORT*      CLOUDY    63  51  65 S15       29.92S
ROCHELLE*      CLOUDY    60  49  67 S14       29.94F
DE KALB*       CLOUDY    59  50  71 S13       29.97F
PERU*          CLOUDY    60  50  69 S9G16     29.96F
$$

ILZ005-006-012>014-019>023-281200-
NORTHEAST ILLINOIS

CITY           SKY/WX    TMP DP  RH WIND       PRES   REMARKS
CHICAGO-OHARE  MOCLDY    62  47  57 S14       29.98F
CHICAGO-MIDWAY CLOUDY    64  47  53 S12       30.00F
AURORA         CLOUDY    61  49  64 S14       29.98F
LANSING*       CLOUDY    59  47  63 S9        30.02F
JOLIET*        CLOUDY    62  50  66 S7        29.99F
WAUKEGAN       CLOUDY    60  48  64 S6        29.97F
DUPAGE AIRPORT CLOUDY    60  50  69 S10       29.97F
WHEELING       PTCLDY    61  50  67 S10       30.00F
MORRIS*        MOCLDY    61  48  63 S13       29.97F
ROMEOVILLE*    MOCLDY    61  46  58 S12       29.99F
$$

LMZ740>746-281200-
SOUTHERN LAKE MICHIGAN

STATION/POSITION SKY/WX   TEMP    WIND        PRES    VSBY  WAVE
                          AIR SEA DIR/SP/G                  HT/PER
                          (F)     (DEG/KT/KT) (MB)    (MI)  (FT/S)
SOUTHERN BUOY              63 61  180/ 14/ 16 1015.7          2/ 4
WILMETTE HARBOR            65 63  170/ 12/ 17   N/A           2/ 3
HARRISON CRIB              65     180/ 14/ 15   N/A
BURNHAM HARBOR             63                   N/A
CALUMET HARBOR             63     170/  9/ 14 1015.9F
BURNS HARBOR               62     180/  7/ 13 1017.6R
MICHIGAN CITY              62     150/ 11/ 15   N/A
MICHIGAN CITY 6N           62 66  180/ 14/ 17   N/A           1/ 2
ST. JOSEPH                 64 68  190/ 16/ 19 1017.6          2/ 3
$$

ILZ025>027-034>036-040-047-049-050-058-095>099-281200-
WEST-CENTRAL ILLINOIS

CITY           SKY/WX    TMP DP  RH WIND       PRES   REMARKS
QUINCY         MOCLDY    69  61  75 S16G22    29.92F
GALESBURG*     CLOUDY    64  56  77 S12G17    29.93R
MACOMB*        CLOUDY    65  58  77 S9        29.94F
JACKSONVILLE*  CLOUDY    65  56  72 S12       29.98S
PITTSFIELD*    CLOUDY    67  61  79 S10       29.97F
$$

ILZ028>032-037-038-041>044-048-051>054-059>061-281200-
CENTRAL ILLINOIS

CITY           SKY/WX    TMP DP  RH WIND       PRES   REMARKS
PONTIAC        MOCLDY    60  52  73 S13       30.00F
BLOOMINGTON    CLOUDY    57  51  80 S10       30.01F
DECATUR        CLOUDY    61  51  70 S10       30.02F
PEORIA         CLOUDY    63  53  70 S12       29.95F
LACON*         CLOUDY    63  52  68 S9        29.95F
LINCOLN*       CLOUDY    60  54  82 S6        30.00F
SPRINGFIELD    CLOUDY    66  55  67 S12       29.99F
TAYLORVILLE    PTCLDY    60  51  73 S10       30.02S
$$

ILZ033-039-045-046-055>057-062-063-281200-
EAST-CENTRAL ILLINOIS

CITY           SKY/WX    TMP DP  RH WIND       PRES   REMARKS
CHAMPAIGN      CLOUDY    59  48  67 SE8       30.04F
RANTOUL*       CLOUDY    56  51  84 SE3       30.04F
MATTOON        CLEAR     58  52  80 SE8       30.05R
PARIS*         CLOUDY    54  51  88 SE5       30.08S
$$

ILZ079-100>102-281200-
SOUTHWEST ILLINOIS

CITY           SKY/WX    TMP DP  RH WIND       PRES   REMARKS
ALTON          CLOUDY    60  58  90 S3        30.02S
BELLEVILLE     CLOUDY    59  55  87 CALM      30.04S
CAHOKIA*       CLOUDY    64  56  75 S3        30.02R
SPARTA*        CLOUDY    59  55  87 SE6       30.05S
$$

ILZ064>066-069>071-074>076-080>082-084>086-088>090-092>094-281200-
SOUTH-CENTRAL ILLINOIS

CITY           SKY/WX    TMP DP  RH WIND       PRES   REMARKS
CARBONDALE     PTCLDY    59  58  96 SE5       30.05F
CAIRO*         PTCLDY    60  58  92 CALM      30.07R
EFFINGHAM*     CLEAR     58  54  86 E6        30.07F
MARION         CLEAR     63  57  82 SE3       30.07F
MT. VERNON     CLEAR     54  53  97 CALM      30.06F
CENTRALIA*     PTCLDY    62  55  79 SE8       30.04F
SALEM*         CLOUDY    62  52  70 SE6       30.05F
METROPOLIS*    CLEAR     60  58  93 CALM      30.09R
$$

ILZ067-068-072-073-078-083-087-091-281200-
SOUTHEAST ILLINOIS

CITY           SKY/WX    TMP DP  RH WIND       PRES   REMARKS
LAWRENCEVILLE  CLEAR     56  52  86 CALM      30.10R
FLORA*         CLEAR     55  52  89 SE5       30.07S
FAIRFIELD*     CLEAR     56  54  92 CALM      30.06F
HARRISBURG*    PTCLDY    56  55  96 CALM      30.09R
ROBINSON*      CLEAR     51  49  92 CALM      30.11R
CARMI*         CLEAR     55  54  96 CALM      30.09R
$$

ABBREVIATIONS USED IN REMARKS
   TC - TEMPERATURE IN CELSIUS
  WCI - WIND CHILL INDEX
   HX - HEAT INDEX
  VSB - VISIBILITY
$$





USA.gov is the U.S. government's official web portal to all federal, state and local government web resources and services.